User: anonymous   Login
Location: Slanting_Bridge
(35.6330°N, 80.9830°W)
Time: 02:54:46
(UTC-04:00)
Language:

Hamsat - Orbit

View from above orbital plane
View from above orbital plane
View from above satellite
View from above satellite

Ground track
Ground track

The orbit data is extracted from the following two-line orbital elements,

1 28650U 05017B   18113.86631033 +.00000308 +00000-0 +38456-4 0  9999
2 28650 097.6941 083.4771 0023379 178.8151 181.3126 14.88908714702320
Epoch (UTC): 23 April 2018 20:47:29
Eccentricity: 0.0023379
inclination: 97.6941°
perigee height: 585 km
apogee height: 617 km
right ascension of ascending node: 83.4771°
argument of perigee: 178.8151°
revolutions per day: 14.88908714
mean anomaly at epoch: 181.3126°
orbit number at epoch: 70232

The dashed part of the orbit path shows where the satellite is in the earth's shadow,  

DLR